Weather History for Fairbanks, AK

Change the Weather History Date:

Monday, May 12, 2014

  Actual Average Record
Temperature  
Mean Temperature 55 °F 48 °F  
Max Temperature 73 °F 60 °F 81 °F (1942)
Min Temperature 37 °F 36 °F 20 °F (1917)
Degree Days  
Heating Degree Days 10 17  
Month to date heating degree days 182 235  
Since 1 July heating degree days 12075 13259  
Cooling Degree Days 0 0  
Month to date cooling degree days 0 0  
Year to date cooling degree days 0 0  
Growing Degree Days 5 (Base 50)    
Moisture  
Dew Point 28 °F    
Average Humidity 35    
Maximum Humidity 71    
Minimum Humidity 7    
Precipitation  
Precipitation 0.00 in 0.02 in 0.78 in (1992)
Month to date precipitation 0.02 0.20  
Year to date precipitation 1.05 1.76  
Snow  
Snow 0.00 in 0.10 in 9.40 in (1992)
Month to date snowfall T 0.6  
Since 1 July snowfall 48.9 64.7  
Snow Depth 0.00 in    
Sea Level Pressure  
Sea Level Pressure 30.23 in    
Wind  
Wind Speed 2 mph (ENE)    
Max Wind Speed 6 mph    
Max Gust Speed -    
Visibility 9 miles    
Events      
T = Trace of Precipitation, MM = Missing Value Source: NWS Daily Summary

Daily Weather History Graph

Daily Weather History Graph

Search for Another Location

Airport:

Trip Planner

Search our weather history database for the weather conditions in past years. The results will help you decide how hot, cold, wet, or windy it might be!

Date:

Astronomy

May. 12, 2014 Rise Set
Actual Time 4:38 AM AKDT 10:59 PM AKDT
Civil Twilight 2:55 AM AKDT 12:47 AM AKDT
Nautical Twilight Sun does not rise Sun does not rise
Astronomical Twilight Sun does not rise Sun does not rise
Moon 8:14 PM AKDT (5/12) 4:30 AM AKDT (5/12)
Length of Visible Light 21h 51m
Length of Day
18h 20m
Waxing Gibbous, 95% of the Moon is Illuminated
May 12
Waxing Gibbous
May 14
Full
May 21
Last Quarter
May 28
New
Jun 5
First Quarter

Hourly Weather History & Observations

Time (AKDT) Temp. Windchill Dew Point Humidity Pressure Visibility Wind Dir Wind Speed Gust Speed Precip Events Conditions
12:53 AM 48.9 °F - 30.0 °F 48% 30.24 in 10.0 mi NE 5.8 mph - N/A   Scattered Clouds
1:53 AM 46.0 °F - 28.9 °F 51% 30.25 in 10.0 mi Calm Calm - N/A   Scattered Clouds
2:53 AM 43.0 °F - 34.0 °F 71% 30.26 in 10.0 mi Calm Calm - N/A   Scattered Clouds
3:53 AM 41.0 °F 39.0 °F 30.9 °F 67% 30.26 in 10.0 mi NNE 3.5 mph - N/A   Scattered Clouds
4:53 AM 39.9 °F - 30.0 °F 68% 30.27 in 10.0 mi Calm Calm - N/A   Mostly Cloudy
6:53 AM 43.0 °F - 32.0 °F 65% 30.29 in 10.0 mi Calm Calm - N/A   Mostly Cloudy
7:53 AM 48.9 °F - 30.9 °F 50% 30.29 in 10.0 mi Calm Calm - N/A   Mostly Cloudy
8:53 AM 53.1 °F - 30.0 °F 41% 30.29 in 10.0 mi ENE 4.6 mph - N/A   Scattered Clouds
9:53 AM 57.0 °F - 28.9 °F 34% 30.28 in 10.0 mi Calm Calm - N/A   Scattered Clouds
10:53 AM 62.1 °F - 28.0 °F 28% 30.27 in 10.0 mi Variable 4.6 mph - N/A   Scattered Clouds
11:53 AM 64.0 °F - 28.0 °F 26% 30.27 in 10.0 mi Variable 3.5 mph - N/A   Mostly Cloudy
12:53 PM 66.9 °F - 27.0 °F 22% 30.25 in 10.0 mi ENE 4.6 mph - N/A   Mostly Cloudy
1:53 PM 68.0 °F - 26.1 °F 21% 30.24 in 10.0 mi Calm Calm - N/A   Mostly Cloudy
2:53 PM 70.0 °F - 24.1 °F 18% 30.23 in 10.0 mi Variable 3.5 mph - N/A   Mostly Cloudy
3:53 PM 70.0 °F - 21.0 °F 16% 30.22 in 10.0 mi Calm Calm - N/A   Scattered Clouds
4:53 PM 72.0 °F - 21.0 °F 15% 30.20 in 7.0 mi Variable 4.6 mph - N/A   Scattered Clouds
5:53 PM 73.0 °F - 18.0 °F 12% 30.19 in 7.0 mi NW 4.6 mph - N/A   Partly Cloudy
6:53 PM 71.1 °F - 21.0 °F 15% 30.17 in 7.0 mi SSW 3.5 mph - N/A   Partly Cloudy
7:53 PM 70.0 °F - 24.1 °F 18% 30.17 in 8.0 mi South 3.5 mph - N/A   Scattered Clouds
8:53 PM 68.0 °F - 30.9 °F 25% 30.16 in 7.0 mi SSW 3.5 mph - N/A   Scattered Clouds
9:53 PM 62.6 °F - 30.2 °F 30% 30.15 in 9.0 mi Calm Calm - N/A   Mostly Cloudy
10:53 PM 57.0 °F - 37.0 °F 47% 30.16 in 10.0 mi Calm Calm - N/A   Mostly Cloudy
11:53 PM 52.0 °F - 39.9 °F 63% 30.17 in 10.0 mi Calm Calm - N/A   Mostly Cloudy